Regional Weather Roundup
Issued by NWS

Home | Current Version | Previous Version | Graphics & Text | Print | Product List | Glossary On
Versions: 1 2 3 4 5 6 7 8 9 10 11 12 13 14 15 16 17 18 19 20 21 22 23 24 25 26 27 28 29 30 31 32 33 34 35 36 37 38 39 40 41 42 43 44 45 46 47 48
000
ASUS45 KBOU 200407
RWRCO

WEATHER ROUNDUP FOR COLORADO
NATIONAL WEATHER SERVICE DENVER/BOULDER CO
1000 PM MDT FRI SEP 19 2014

NOTE: "FAIR" INDICATES FEW OR NO CLOUDS BELOW 12000 FEET WITH NO
SIGNIFICANT WEATHER AND/OR OBSTRUCTIONS TO VISIBILITY.

COZ001>005-013-030-031-200500-
...NORTHWEST COLORADO...

CITY           SKY/WX    TMP DP  RH WIND       PRES   REMARKS
CRAIG          MOCLDY    57  48  72 N3        30.17R
HAYDEN         MOCLDY    61  39  44 S6        30.18R
MEEKER         NOT AVBL
MOUNT WERNER   NOT AVBL
STEAMBOAT SPGS MOCLDY    60  44  55 CALM      30.20S
WALDEN         CLEAR     55  36  47 W3        30.28S
$$

COZ006>008-011-200500-
...WEST CENTRAL VALLEYS...

CITY           SKY/WX    TMP DP  RH WIND       PRES   REMARKS
GRAND JUNCTION CLEAR     70  43  37 CALM      30.01R
MONTROSE       CLEAR     66  46  48 SE10      30.11R
EAGLE          CLEAR     64  43  45 N3        30.19R
RIFLE          CLEAR     65  45  48 E3        30.09R
DELTA          CLEAR     70  39  32 NE5       30.05R
NUCLA          CLEAR     66  43  42 E6        30.15R
$$

COZ017>023-064>068-200500-
...SOUTHWEST COLORADO...

CITY           SKY/WX    TMP DP  RH WIND       PRES   REMARKS
DURANGO        CLEAR     68  43  40 N9        30.14R
CORTEZ         CLEAR     63  48  58 NE7       30.10R
PAGOSA SPRINGS CLEAR     60  44  55 N3        30.23F
TELLURIDE      NOT AVBL
WOLF CREEK PAS MOCLDY    46  32  57 W7        30.54S
$$

COZ009-010-012-014-032>034-037-058>063-200500-
...CENTRAL COLORADO...

CITY           SKY/WX    TMP DP  RH WIND       PRES   REMARKS
ASPEN          CLEAR     55  40  56 S6        30.25R
BUENA VISTA    PTCLDY    58  37  45 W6        30.26S
COPPER MTN     MOCLDY    54  34  47 W5        30.58R
BERTHOUD PASS  MOCLDY    43  41  93 NW13      30.62S
COTTONWOOD PAS PTCLDY    63  30  29 W7        30.40S
GUNNISON       CLEAR     57  39  51 CALM      30.26R
KREMMLING      PTCLDY    55  37  50 CALM      30.25R
LEADVILLE      CLEAR     47  31  53 NE6       30.40R
SALIDA         PTCLDY    61  38  42 W6        30.30R
SUNLIGHT       CLEAR     55  37  50 NW5       30.50R
WILKERSON PASS NOT AVBL
$$

COZ069>075-200500-
...SAN LUIS VALLEY/SANGRE DE CRISTO MOUNTAINS...

CITY           SKY/WX    TMP DP  RH WIND       PRES   REMARKS
ALAMOSA        PTCLDY    58  31  35 SE8       30.19R
LA VETA PASS   CLEAR     54  27  35 N6        30.41R
SAGUACHE       NOT AVBL
$$

COZ035-036-038>040-200500-
...NORTHERN COLORADO FRONT RANGE...

CITY           SKY/WX    TMP DP  RH WIND       PRES   REMARKS
DENVER INTL AP PTCLDY    66  48  52 E7        30.05R
DMNS CITY PARK   N/A     67  49  53 SW2       30.06R
AURORA         PTCLDY    65  44  47 S6        30.09R
FRONT RANGE AP PTCLDY    68  48  49 E6        30.07R
ERIE MUNI ARPT PTCLDY    71  47  43 CALM      30.06R
BOULDER MUN AP PTCLDY    68  50  52 CALM      30.07R
CENTENNIAL     PTCLDY    71  43  36 NE7       30.09R
BROOMFIELD     PTCLDY    70  48  46 NW8       30.09R
FORT COLLINS   MOCLDY    66  52  59 CALM      30.06R
LONGMONT       MOCLDY    68  51  54 CALM      30.08R
$$

COZ041-046-047-076>085-087-088-200500-
...PIKES PEAK/PALMER DIVIDE AND SOUTHERN FOOTHILLS...

CITY           SKY/WX    TMP DP  RH WIND       PRES   REMARKS
COLO. SPRINGS  PTCLDY    65  42  43 N8        30.12R
A. F. ACADEMY  MOCLDY    61  40  45 VRB3      30.14R
ELLICOTT       NOT AVBL
FALCON         PTCLDY    57  42  57 NW5       30.17R
FORT CARSON    PTCLDY    64  42  45 NW5       30.08R
LIMON          CLEAR     55  41  59 N6        30.05R
MONUMENT HILL  PTCLDY    59  37  44 SW5       30.17S
TRINIDAD       CLEAR     70  55  59 W17       30.06R
$$

COZ042>045-048>051-090-091-200500-
...NORTHEAST COLORADO...

CITY           SKY/WX    TMP DP  RH WIND       PRES   REMARKS
GREELEY ARPT     N/A     66  48  52 S7        30.02S
AKRON          CLOUDY    73  48  41 N12       30.02R
BURLINGTON     CLEAR     71  58  63 S12       29.98R
WRAY           CLOUDY    74  56  53 SW8       29.95R
STERLING       MOCLDY    72  59  64 S9        29.93S
HOLYOKE        CLOUDY    72  57  60 CALM      29.91R
FORT MORGAN    TSTM      65  52  64 N18G28    30.03R
$$

COZ086-089-092>099-200500-
...SOUTHEAST COLORADO...

CITY           SKY/WX    TMP DP  RH WIND       PRES   REMARKS
PUEBLO         CLEAR     67  33  28 CALM      29.97R
LA JUNTA       CLEAR     75  56  51 S10       29.94R
LAMAR          CLEAR     73  61  65 S20G29    29.92R
SPRINGFIELD      N/A     65  62  90 S15       30.02R
$$



USA.gov is the U.S. government's official web portal to all federal, state and local government web resources and services.